Flag for Egypt Weather past 2 weeks in Port Said, Egypt

Now
82 °F

Clear.


Feels Like: 88 °F
Forecast: 79 / 87 °F
Wind: 10 mph from Northwest

Location: Port Said Airport

Current Time: Aug 27, 2014 at 10:28:27 PM

Latest Report: Aug 27, 2014 at 9:00 PM


Visibility: 10 mi

Pressure: 29.74 "Hg

Humidity: 74%

Dew point: 73 °F

Location of Port SaidLocation

Historic Weather in Port Said — Graph

°F

Port Said temperature yesterday

Maximum temperature yesterday: 90 °F (at 2:00 PM)
Minimum temperature yesterday: 81 °F (at 4:00 AM)
Average temperature yesterday: 84 °F

Past Weeks' High & Low Weather Summary

 TemperatureHumidityPressure
High93 °F (Aug 14, 2:00 PM)100% (Aug 23, 6:00 PM)29.95 "Hg (Aug 23, 6:00 PM)
Low77 °F (Aug 20, 6:00 AM)40% (Aug 22, 11:00 PM)29.62 "Hg (Aug 17, 8:00 PM)
Average83 °F76%29.79 "Hg
* Reported Aug 12 8:00 PM — Aug 27 8:00 PM, Port Said, Weather by CustomWeather, © 2014

Note: Actual official high and low records may vary slightly from our data, if they occured in-between our weather recording intervals... More about our weather records

Advertising

Port Said weather history for previous 24 hours

 ConditionsComfort  
Time TempWeatherWind HumidityBarometerVisibility
8:00 PM
Aug 27
84 °FPassing clouds.13 mph70%29.74 "HgN/A
7:00 PM84 °FScattered clouds.14 mph70%29.74 "HgN/A
6:00 PM84 °FScattered clouds.14 mph74%29.74 "HgN/A
5:00 PM86 °FScattered clouds.15 mph70%29.74 "HgN/A
4:00 PM86 °FScattered clouds.14 mph70%29.74 "HgN/A
3:00 PM86 °FScattered clouds.12 mph70%29.77 "HgN/A
2:00 PM88 °FScattered clouds.10 mph66%29.77 "HgN/A
1:00 PM88 °FScattered clouds.12 mph59%29.77 "HgN/A
12:00 PM86 °FScattered clouds.12 mph66%29.80 "HgN/A
11:00 AM84 °FScattered clouds.12 mph70%29.80 "HgN/A
10:00 AM82 °FScattered clouds.12 mph79%29.80 "HgN/A
9:00 AM81 °FClear.8 mph84%29.80 "Hg4 mi
8:00 AM79 °FScattered clouds.6 mph89%29.80 "Hg4 mi
7:00 AM79 °FPassing clouds.5 mph94%29.77 "Hg4 mi
6:00 AM79 °FClear.No wind89%29.77 "Hg10 mi
5:00 AM81 °FClear.6 mph84%29.77 "Hg10 mi
4:00 AM81 °FClear.6 mph84%29.77 "Hg10 mi
3:00 AM81 °FClear.5 mph79%29.77 "Hg10 mi
2:00 AM82 °FClear.3 mph79%29.80 "Hg10 mi
1:00 AM82 °FClear.5 mph79%29.80 "Hg10 mi
12:00 AM82 °FClear.5 mph79%29.80 "Hg10 mi
11:00 PM
Aug 26
82 °FClear.5 mph79%29.80 "Hg10 mi
10:00 PM82 °FClear.6 mph79%29.80 "Hg10 mi
Weather by CustomWeather, © 2014

See weather overviewHow to use our weather pages